Brooklyn Center, MN

9:47 AM CDT on October 01, 2016 (GMT -0500)
Crystal

Weather History for KMIC - August, 2014

Change the Weather History Date:

Thursday, August 14, 2014

  Actual Average Record
Temperature  
Mean Temperature 72 °F -  
Max Temperature 82 °F 77 °F 93 °F (2015)
Min Temperature 61 °F 57 °F 37 °F (1997)
Cooling Degree Days 6    
Growing Degree Days 22 (Base 50)    
Moisture  
Dew Point 52 °F    
Average Humidity 52    
Maximum Humidity 75    
Minimum Humidity 36    
Precipitation  
Precipitation 0.00 in - - ()
Sea Level Pressure  
Sea Level Pressure 30.06 in    
Wind  
Wind Speed 6 mph (SE)    
Max Wind Speed 10 mph    
Max Gust Speed -    
Visibility 10 miles    
Events      
Averages and records for this station are not official NWS values.
T = Trace of Precipitation, MM = Missing Value Source: NWS Daily Summary

Daily Weather History Graph

Daily Weather History Graph

Search for Another Location

Airport or City:

Trip Planner

Search our weather history database for the weather conditions in past years. The results will help you decide how hot, cold, wet, or windy it might be!

Date:

Astronomy

Aug. 14, 2014 Rise Set
Actual Time 6:13 AM CDT 8:21 PM CDT
Civil Twilight 5:41 AM CDT 8:53 PM CDT
Nautical Twilight 5:02 AM CDT 9:32 PM CDT
Astronomical Twilight 4:17 AM CDT 10:16 PM CDT
Moon 10:29 PM CDT (8/14) 11:05 AM CDT (8/14)
Length of Visible Light 15h 11m
Length of Day
14h 07m
Waning Gibbous, 79% of the Moon is Illuminated
Aug 14
Waning Gibbous
Aug 17
Last Quarter
Aug 25
New
Sep 2
First Quarter
Sep 8
Full

Hourly Weather History & Observations

Time (CDT) Temp. Heat Index Dew Point Humidity Pressure Visibility Wind Dir Wind Speed Gust Speed Precip Events Conditions
12:53 AM 62.1 °F - 53.1 °F 72% 30.08 in 10.0 mi ESE 3.5 mph - N/A   Clear
1:53 AM 61.0 °F - 53.1 °F 75% 30.09 in 10.0 mi Calm Calm - N/A   Clear
2:53 AM 62.1 °F - 52.0 °F 70% 30.08 in 10.0 mi Calm Calm - N/A   Mostly Cloudy
3:53 AM 62.1 °F - 51.1 °F 67% 30.09 in 10.0 mi ESE 3.5 mph - N/A   Scattered Clouds
4:53 AM 62.1 °F - 48.9 °F 62% 30.09 in 10.0 mi East 5.8 mph - N/A   Clear
5:53 AM 61.0 °F - 48.9 °F 64% 30.09 in 10.0 mi ESE 6.9 mph - N/A   Clear
6:53 AM 62.1 °F - 48.0 °F 60% 30.11 in 10.0 mi ESE 6.9 mph - N/A   Mostly Cloudy
7:53 AM 64.0 °F - 46.9 °F 54% 30.12 in 10.0 mi ESE 9.2 mph - N/A   Partly Cloudy
8:53 AM 66.9 °F - 46.9 °F 49% 30.13 in 10.0 mi SE 10.4 mph - N/A   Clear
9:53 AM 70.0 °F - 48.0 °F 46% 30.12 in 10.0 mi ESE 8.1 mph - N/A   Clear
10:53 AM 72.0 °F - 48.9 °F 44% 30.12 in 10.0 mi ESE 9.2 mph - N/A   Overcast
11:53 AM 75.0 °F - 50.0 °F 41% 30.11 in 10.0 mi ESE 10.4 mph - N/A   Clear
12:53 PM 78.1 °F - 51.1 °F 39% 30.09 in 10.0 mi SSE 9.2 mph - N/A   Clear
1:53 PM 79.0 °F - 50.0 °F 36% 30.06 in 10.0 mi SSE 8.1 mph - N/A   Clear
2:53 PM 81.0 °F - 52.0 °F 36% 30.04 in 10.0 mi South 9.2 mph - N/A   Clear
3:53 PM 82.0 °F 81.2 °F 53.1 °F 37% 30.03 in 10.0 mi SSE 9.2 mph - N/A   Clear
4:53 PM 80.1 °F 80.0 °F 54.0 °F 40% 30.02 in 10.0 mi Variable 3.5 mph - N/A   Mostly Cloudy
5:53 PM 82.0 °F 81.4 °F 55.0 °F 39% 30.00 in 10.0 mi SSE 9.2 mph - N/A   Mostly Cloudy
6:53 PM 79.0 °F - 55.9 °F 45% 29.98 in 10.0 mi SE 9.2 mph - N/A   Scattered Clouds
7:53 PM 75.9 °F - 55.9 °F 50% 29.98 in 10.0 mi SE 5.8 mph - N/A   Clear
8:53 PM 73.9 °F - 55.9 °F 53% 29.97 in 10.0 mi SE 8.1 mph - N/A   Clear
9:53 PM 73.0 °F - 55.9 °F 55% 29.99 in 10.0 mi SE 9.2 mph - N/A   Clear
10:53 PM 71.1 °F - 55.9 °F 59% 29.99 in 10.0 mi SE 5.8 mph - N/A   Clear
11:53 PM 70.0 °F - 55.0 °F 59% 29.99 in 10.0 mi SSE 6.9 mph - N/A   Clear